When you browse on this site, cookies collect data to enhance your experience and personalize the content and advertising you see.
Visit our Privacy Policy to learn more. By continuing to use the site, you agree to this use of cookies and data.
  • In France
  • List of Countries
  • For 7 days
  • Water Temperature
  • Satellite Maps
  • Weather Map
  • Weather Widgets
  • user-avatar
    Login

    Hourly Weather Leticia

    Today, 20 November, Tuesday

    Time Temperature Precipitation Wind Pressure Humidity
    00:00 +24°C° 0.1 mm 0 mps 751 mmHg 98%
    01:00 +24°C° 0 mm 0 mps 751 mmHg 99%
    02:00 +24°C° 0.1 mm 0 mps 751 mmHg 99%
    03:00 +23°C° 0.1 mm 0 mps 751 mmHg 99%
    04:00 +23°C° 0.1 mm 0 mps 751 mmHg 99%
    05:00 +24°C° 0 mm 0 mps 751 mmHg 98%
    06:00 +24°C° 0 mm 0 mps 751 mmHg 97%
    07:00 +24°C° 0 mm 0 mps 752 mmHg 96%
    08:00 +25°C° 0.1 mm 0 mps 752 mmHg 92%
    09:00 +26°C° 0.1 mm 0 mps 752 mmHg 88%
    10:00 +29°C° 0.1 mm 1 mps 752 mmHg 84%
    11:00 +30°C° 0 mm 1 mps 751 mmHg 76%
    12:00 +32°C° 0 mm 1 mps 750 mmHg 69%
    13:00 +33°C° 0 mm 1 mps 749 mmHg 61%
    14:00 +33°C° 0 mm 1 mps 749 mmHg 64%
    15:00 +32°C° 0 mm 1 mps 749 mmHg 66%
    16:00 +32°C° 0 mm 1 mps 748 mmHg 69%
    17:00 +30°C° 0.1 mm 1 mps 749 mmHg 74%
    18:00 +27°C° 0.1 mm 0 mps 749 mmHg 80%
    19:00 +25°C° 0.1 mm 0 mps 750 mmHg 86%
    20:00 +25°C° 0 mm 0 mps 750 mmHg 87%
    21:00 +27°C° 0 mm 1 mps 751 mmHg 89%
    22:00 +27°C° 0 mm 1 mps 751 mmHg 90%
    23:00 +26°C° 0 mm 1 mps 751 mmHg 92%

    Tomorrow, 21 November, Wednesday

    Time Temperature Precipitation Wind Pressure Humidity
    00:00 +26°C° 0 mm 1 mps 751 mmHg 93%
    01:00 +24°C° 0 mm 0 mps 750 mmHg 95%
    02:00 +23°C° 0 mm 0 mps 750 mmHg 95%
    03:00 +23°C° 0 mm 0 mps 750 mmHg 96%
    04:00 +23°C° 0 mm 0 mps 750 mmHg 97%
    05:00 +24°C° 0.1 mm 0 mps 751 mmHg 95%
    06:00 +24°C° 0.1 mm 0 mps 751 mmHg 94%
    07:00 +24°C° 0.1 mm 0 mps 752 mmHg 92%
    08:00 +26°C° 0.1 mm 0 mps 752 mmHg 87%
    09:00 +27°C° 0.1 mm 0 mps 752 mmHg 81%
    10:00 +28°C° 0.1 mm 0 mps 752 mmHg 76%
    11:00 +32°C° 0 mm 1 mps 751 mmHg 68%
    12:00 +34°C° 0 mm 1 mps 750 mmHg 59%
    13:00 +36°C° 0 mm 1 mps 749 mmHg 51%
    14:00 +35°C° 0.2 mm 1 mps 749 mmHg 56%
    15:00 +34°C° 0.2 mm 1 mps 748 mmHg 61%
    16:00 +31°C° 0.2 mm 0 mps 748 mmHg 66%
    17:00 +31°C° 0 mm 1 mps 748 mmHg 73%
    18:00 +29°C° 0 mm 1 mps 749 mmHg 81%
    19:00 +28°C° 0 mm 1 mps 749 mmHg 88%
    20:00 +25°C° 0.3 mm 0 mps 750 mmHg 90%
    21:00 +25°C° 0.3 mm 0 mps 750 mmHg 92%
    22:00 +24°C° 0.3 mm 0 mps 751 mmHg 94%
    23:00 +24°C° 1.7 mm 0 mps 750 mmHg 95%

    Day after tomorrow, 22 November, Thursday

    Time Temperature Precipitation Wind Pressure Humidity
    00:00 +24°C° 1.7 mm 0 mps 750 mmHg 96%
    01:00 +23°C° 1.7 mm 0 mps 750 mmHg 97%
    02:00 +23°C° 0.4 mm 0 mps 750 mmHg 97%
    03:00 +23°C° 0.4 mm 0 mps 750 mmHg 97%
    04:00 +23°C° 0.4 mm 0 mps 750 mmHg 97%
    05:00 +24°C° 0.4 mm 0 mps 750 mmHg 97%
    06:00 +24°C° 0.4 mm 0 mps 751 mmHg 96%
    07:00 +24°C° 0.4 mm 0 mps 751 mmHg 95%
    08:00 +26°C° 0.5 mm 0 mps 751 mmHg 87%
    09:00 +30°C° 0.5 mm 1 mps 751 mmHg 80%
    10:00 +32°C° 0.5 mm 1 mps 752 mmHg 72%
    11:00 +32°C° 1.3 mm 1 mps 751 mmHg 75%
    12:00 +32°C° 1.3 mm 1 mps 750 mmHg 79%
    13:00 +32°C° 1.3 mm 1 mps 749 mmHg 83%
    14:00 +31°C° 1.7 mm 1 mps 748 mmHg 85%
    15:00 +31°C° 1.7 mm 1 mps 748 mmHg 88%
    16:00 +28°C° 1.7 mm 0 mps 747 mmHg 91%
    17:00 +27°C° 0.4 mm 0 mps 748 mmHg 93%
    18:00 +26°C° 0.4 mm 0 mps 748 mmHg 94%
    19:00 +25°C° 0.4 mm 0 mps 749 mmHg 95%
    20:00 +25°C° 0.1 mm 0 mps 749 mmHg 96%
    21:00 +24°C° 0.1 mm 0 mps 750 mmHg 96%
    22:00 +24°C° 0.1 mm 0 mps 750 mmHg 96%
    23:00 +24°C° 0.1 mm 0 mps 750 mmHg 97%

    23 November, Friday

    Time Temperature Precipitation Wind Pressure Humidity
    00:00 +24°C° 0.1 mm 0 mps 749 mmHg 97%
    01:00 +24°C° 0.1 mm 0 mps 749 mmHg 98%
    02:00 +26°C° 0.4 mm 1 mps 749 mmHg 98%
    03:00 +25°C° 0.4 mm 1 mps 748 mmHg 98%
    04:00 +25°C° 0.4 mm 1 mps 748 mmHg 98%
    05:00 +26°C° 0.1 mm 1 mps 749 mmHg 98%
    06:00 +26°C° 0.1 mm 1 mps 749 mmHg 97%
    07:00 +26°C° 0.1 mm 1 mps 750 mmHg 96%
    08:00 +28°C° 0 mm 1 mps 750 mmHg 87%
    09:00 +30°C° 0 mm 1 mps 751 mmHg 77%
    10:00 +32°C° 0 mm 2 mps 751 mmHg 67%
    11:00 +32°C° 0.5 mm 2 mps 750 mmHg 69%
    12:00 +34°C° 0.5 mm 2 mps 749 mmHg 70%
    13:00 +34°C° 0.5 mm 2 mps 748 mmHg 71%
    14:00 +32°C° 1.1 mm 1 mps 747 mmHg 78%
    15:00 +31°C° 1.1 mm 1 mps 747 mmHg 84%
    16:00 +30°C° 1.1 mm 1 mps 746 mmHg 90%
    17:00 +29°C° 0.1 mm 1 mps 747 mmHg 92%
    18:00 +28°C° 0.1 mm 1 mps 747 mmHg 94%
    19:00 +25°C° 0.1 mm 0 mps 748 mmHg 96%
    20:00 +25°C° 0 mm 0 mps 748 mmHg 96%
    21:00 +27°C° 0 mm 1 mps 749 mmHg 96%
    22:00 +26°C° 0 mm 1 mps 749 mmHg 97%
    23:00 +26°C° 0 mm 1 mps 749 mmHg 97%

    24 November, Saturday

    Time Temperature Precipitation Wind Pressure Humidity
    00:00 +26°C° 0 mm 1 mps 749 mmHg 97%
    01:00 +25°C° 0 mm 1 mps 748 mmHg 98%
    02:00 +25°C° 0 mm 1 mps 748 mmHg 98%
    03:00 +25°C° 0 mm 1 mps 748 mmHg 99%
    04:00 +25°C° 0 mm 1 mps 748 mmHg 99%
    05:00 +26°C° 0 mm 1 mps 749 mmHg 97%
    06:00 +26°C° 0 mm 1 mps 749 mmHg 94%
    07:00 +27°C° 0 mm 1 mps 750 mmHg 92%
    08:00 +29°C° 0 mm 1 mps 750 mmHg 81%
    09:00 +31°C° 0 mm 2 mps 750 mmHg 70%
    10:00 +34°C° 0 mm 2 mps 750 mmHg 58%
    11:00 +35°C° 0 mm 2 mps 749 mmHg 55%
    12:00 +36°C° 0 mm 2 mps 748 mmHg 51%
    13:00 +37°C° 0 mm 2 mps 747 mmHg 47%
    14:00 +37°C° 0 mm 2 mps 747 mmHg 49%
    15:00 +36°C° 0 mm 2 mps 746 mmHg 51%
    16:00 +35°C° 0 mm 1 mps 746 mmHg 53%
    17:00 +33°C° 0.1 mm 1 mps 746 mmHg 62%
    18:00 +31°C° 0.1 mm 1 mps 747 mmHg 71%
    19:00 +29°C° 0.1 mm 1 mps 748 mmHg 79%
    20:00 +28°C° 1.4 mm 1 mps 749 mmHg 84%
    21:00 +27°C° 1.4 mm 1 mps 749 mmHg 89%
    22:00 +27°C° 1.4 mm 1 mps 749 mmHg 93%
    23:00 +26°C° 0.7 mm 1 mps 749 mmHg 94%

    25 November, Sunday

    Time Temperature Precipitation Wind Pressure Humidity
    00:00 +26°C° 0.7 mm 1 mps 749 mmHg 96%
    01:00 +24°C° 0.7 mm 0 mps 749 mmHg 97%
    02:00 +24°C° 0.2 mm 0 mps 749 mmHg 97%
    03:00 +24°C° 0.2 mm 0 mps 749 mmHg 97%
    04:00 +23°C° 0.2 mm 0 mps 749 mmHg 97%
    05:00 +24°C° 0.1 mm 0 mps 749 mmHg 96%
    06:00 +24°C° 0.1 mm 0 mps 750 mmHg 95%
    07:00 +27°C° 0.1 mm 1 mps 750 mmHg 93%
    08:00 +29°C° 0 mm 1 mps 750 mmHg 83%
    09:00 +31°C° 0 mm 1 mps 750 mmHg 72%
    10:00 +34°C° 0 mm 2 mps 750 mmHg 62%
    11:00 +34°C° 0.9 mm 2 mps 749 mmHg 69%
    12:00 +32°C° 0.9 mm 1 mps 748 mmHg 77%
    13:00 +32°C° 0.9 mm 1 mps 748 mmHg 85%
    14:00 +32°C° 1.6 mm 1 mps 747 mmHg 87%
    15:00 +29°C° 1.6 mm 0 mps 747 mmHg 88%
    16:00 +29°C° 1.6 mm 0 mps 747 mmHg 90%
    17:00 +27°C° 1 mm 0 mps 747 mmHg 92%
    18:00 +26°C° 1 mm 0 mps 748 mmHg 94%
    19:00 +25°C° 1 mm 0 mps 749 mmHg 96%
    20:00 +24°C° 0.3 mm 0 mps 749 mmHg 96%
    21:00 +24°C° 0.3 mm 0 mps 750 mmHg 96%
    22:00 +24°C° 0.3 mm 0 mps 750 mmHg 96%
    23:00 +24°C° 0.4 mm 0 mps 750 mmHg 97%
    Show more